When you browse on this site, cookies collect data to enhance your experience and personalize the content and advertising you see.
Visit our Privacy Policy to learn more. By continuing to use the site, you agree to this use of cookies and data.
  • In Lithuania
  • List of Countries
  • For 7 days
  • Water Temperature
  • Satellite Maps
  • Weather Map
  • Weather Widgets
  • user-avatar
    Login

    Hourly Weather Koeln

    Today, 18 June, Tuesday

    Time Temperature Precipitation Wind Pressure Humidity
    00:00 +20°C° 0 mm 1 mps 758 mmHg 71%
    01:00 +19°C° 0 mm 1 mps 757 mmHg 73%
    02:00 +19°C° 0 mm 1 mps 757 mmHg 75%
    03:00 +18°C° 0 mm 1 mps 757 mmHg 76%
    04:00 +20°C° 0 mm 1 mps 757 mmHg 74%
    05:00 +21°C° 0 mm 1 mps 757 mmHg 71%
    06:00 +22°C° 0 mm 1 mps 757 mmHg 69%
    07:00 +24°C° 0 mm 1 mps 757 mmHg 63%
    08:00 +25°C° 0 mm 1 mps 756 mmHg 58%
    09:00 +27°C° 0 mm 1 mps 756 mmHg 53%
    10:00 +28°C° 0.1 mm 2 mps 756 mmHg 50%
    11:00 +29°C° 0.1 mm 2 mps 755 mmHg 46%
    12:00 +30°C° 0.1 mm 2 mps 755 mmHg 43%
    13:00 +30°C° 0 mm 2 mps 755 mmHg 44%
    14:00 +30°C° 0 mm 2 mps 754 mmHg 44%
    15:00 +30°C° 0 mm 2 mps 754 mmHg 45%
    16:00 +29°C° 0 mm 2 mps 754 mmHg 50%
    17:00 +28°C° 0 mm 2 mps 754 mmHg 55%
    18:00 +27°C° 0 mm 2 mps 754 mmHg 60%
    19:00 +26°C° 0.1 mm 1 mps 754 mmHg 64%
    20:00 +24°C° 0.1 mm 1 mps 754 mmHg 68%
    21:00 +23°C° 0.1 mm 1 mps 754 mmHg 71%
    22:00 +22°C° 0 mm 1 mps 754 mmHg 74%
    23:00 +21°C° 0 mm 1 mps 753 mmHg 77%

    Tomorrow, 19 June, Wednesday

    Time Temperature Precipitation Wind Pressure Humidity
    00:00 +21°C° 0 mm 1 mps 753 mmHg 79%
    01:00 +20°C° 0 mm 1 mps 753 mmHg 80%
    02:00 +20°C° 0 mm 1 mps 752 mmHg 81%
    03:00 +19°C° 0 mm 1 mps 752 mmHg 81%
    04:00 +20°C° 0 mm 2 mps 752 mmHg 79%
    05:00 +21°C° 0 mm 2 mps 752 mmHg 76%
    06:00 +22°C° 0 mm 3 mps 752 mmHg 73%
    07:00 +25°C° 0 mm 3 mps 752 mmHg 66%
    08:00 +26°C° 0 mm 2 mps 752 mmHg 59%
    09:00 +28°C° 0 mm 2 mps 752 mmHg 52%
    10:00 +29°C° 0 mm 3 mps 752 mmHg 49%
    11:00 +29°C° 0 mm 4 mps 751 mmHg 46%
    12:00 +30°C° 0 mm 5 mps 751 mmHg 43%
    13:00 +30°C° 0.1 mm 5 mps 751 mmHg 46%
    14:00 +29°C° 0.1 mm 6 mps 751 mmHg 48%
    15:00 +29°C° 0.1 mm 6 mps 751 mmHg 51%
    16:00 +27°C° 0.1 mm 5 mps 751 mmHg 57%
    17:00 +26°C° 0.1 mm 4 mps 752 mmHg 62%
    18:00 +25°C° 0.1 mm 4 mps 752 mmHg 68%
    19:00 +22°C° 0.1 mm 3 mps 752 mmHg 72%
    20:00 +21°C° 0.1 mm 2 mps 753 mmHg 76%
    21:00 +21°C° 0.1 mm 1 mps 753 mmHg 80%
    22:00 +20°C° 0 mm 1 mps 753 mmHg 81%
    23:00 +20°C° 0 mm 1 mps 753 mmHg 83%

    Day after tomorrow, 20 June, Thursday

    Time Temperature Precipitation Wind Pressure Humidity
    00:00 +19°C° 0 mm 1 mps 753 mmHg 84%
    01:00 +19°C° 0 mm 1 mps 753 mmHg 85%
    02:00 +18°C° 0 mm 1 mps 753 mmHg 86%
    03:00 +18°C° 0 mm 1 mps 753 mmHg 87%
    04:00 +19°C° 0 mm 1 mps 753 mmHg 85%
    05:00 +20°C° 0 mm 1 mps 753 mmHg 82%
    06:00 +20°C° 0 mm 1 mps 753 mmHg 80%
    07:00 +22°C° 0.4 mm 1 mps 753 mmHg 76%
    08:00 +23°C° 0.4 mm 2 mps 753 mmHg 72%
    09:00 +24°C° 0.4 mm 2 mps 753 mmHg 67%
    10:00 +24°C° 0.8 mm 3 mps 753 mmHg 68%
    11:00 +24°C° 0.8 mm 3 mps 753 mmHg 69%
    12:00 +23°C° 0.8 mm 4 mps 753 mmHg 69%
    13:00 +23°C° 0.3 mm 4 mps 753 mmHg 68%
    14:00 +23°C° 0.3 mm 4 mps 754 mmHg 66%
    15:00 +23°C° 0.3 mm 4 mps 754 mmHg 64%
    16:00 +22°C° 0.1 mm 4 mps 754 mmHg 66%
    17:00 +21°C° 0.1 mm 3 mps 754 mmHg 68%
    18:00 +21°C° 0.1 mm 3 mps 754 mmHg 71%
    19:00 +19°C° 0 mm 3 mps 755 mmHg 73%
    20:00 +18°C° 0 mm 2 mps 755 mmHg 76%
    21:00 +17°C° 0 mm 2 mps 756 mmHg 79%
    22:00 +16°C° 0 mm 2 mps 756 mmHg 78%
    23:00 +16°C° 0 mm 2 mps 756 mmHg 78%

    21 June, Friday

    Time Temperature Precipitation Wind Pressure Humidity
    00:00 +15°C° 0 mm 1 mps 756 mmHg 77%
    01:00 +14°C° 0 mm 1 mps 756 mmHg 77%
    02:00 +14°C° 0 mm 1 mps 757 mmHg 77%
    03:00 +13°C° 0 mm 1 mps 757 mmHg 76%
    04:00 +14°C° 0 mm 1 mps 757 mmHg 74%
    05:00 +15°C° 0 mm 1 mps 757 mmHg 72%
    06:00 +16°C° 0 mm 1 mps 757 mmHg 70%
    07:00 +19°C° 0 mm 1 mps 757 mmHg 66%
    08:00 +20°C° 0 mm 1 mps 758 mmHg 63%
    09:00 +20°C° 0 mm 2 mps 758 mmHg 59%
    10:00 +21°C° 0 mm 2 mps 757 mmHg 55%
    11:00 +23°C° 0 mm 2 mps 757 mmHg 50%
    12:00 +22°C° 0 mm 3 mps 757 mmHg 45%
    13:00 +22°C° 0 mm 3 mps 757 mmHg 46%
    14:00 +24°C° 0 mm 3 mps 757 mmHg 46%
    15:00 +24°C° 0 mm 3 mps 757 mmHg 47%
    16:00 +22°C° 0 mm 3 mps 757 mmHg 52%
    17:00 +21°C° 0 mm 3 mps 757 mmHg 57%
    18:00 +21°C° 0 mm 3 mps 757 mmHg 62%
    19:00 +19°C° 0 mm 3 mps 758 mmHg 65%
    20:00 +18°C° 0 mm 2 mps 758 mmHg 68%
    21:00 +16°C° 0 mm 2 mps 759 mmHg 71%
    22:00 +16°C° 0 mm 2 mps 759 mmHg 74%
    23:00 +15°C° 0 mm 1 mps 759 mmHg 77%

    22 June, Saturday

    Time Temperature Precipitation Wind Pressure Humidity
    00:00 +14°C° 0 mm 1 mps 759 mmHg 80%
    01:00 +14°C° 0 mm 1 mps 759 mmHg 81%
    02:00 +14°C° 0 mm 1 mps 759 mmHg 82%
    03:00 +14°C° 0 mm 1 mps 759 mmHg 82%
    04:00 +15°C° 0 mm 1 mps 759 mmHg 79%
    05:00 +16°C° 0 mm 1 mps 759 mmHg 75%
    06:00 +18°C° 0 mm 1 mps 759 mmHg 72%
    07:00 +20°C° 0 mm 1 mps 759 mmHg 65%
    08:00 +21°C° 0 mm 1 mps 759 mmHg 58%
    09:00 +23°C° 0 mm 1 mps 759 mmHg 51%
    10:00 +24°C° 0 mm 2 mps 758 mmHg 49%
    11:00 +24°C° 0 mm 2 mps 758 mmHg 46%
    12:00 +25°C° 0 mm 2 mps 758 mmHg 43%
    13:00 +25°C° 0 mm 2 mps 758 mmHg 44%
    14:00 +25°C° 0 mm 3 mps 758 mmHg 44%
    15:00 +25°C° 0 mm 3 mps 757 mmHg 44%
    16:00 +25°C° 0 mm 3 mps 757 mmHg 49%
    17:00 +24°C° 0 mm 3 mps 757 mmHg 53%
    18:00 +22°C° 0 mm 3 mps 758 mmHg 58%
    19:00 +21°C° 0 mm 3 mps 758 mmHg 62%
    20:00 +19°C° 0 mm 3 mps 758 mmHg 66%
    21:00 +18°C° 0 mm 2 mps 759 mmHg 70%
    22:00 +18°C° 0 mm 2 mps 759 mmHg 73%
    23:00 +17°C° 0 mm 2 mps 759 mmHg 75%

    23 June, Sunday

    Time Temperature Precipitation Wind Pressure Humidity
    00:00 +16°C° 0 mm 2 mps 759 mmHg 78%
    01:00 +16°C° 0 mm 1 mps 759 mmHg 77%
    02:00 +16°C° 0 mm 1 mps 759 mmHg 77%
    03:00 +15°C° 0 mm 1 mps 759 mmHg 77%
    04:00 +16°C° 0 mm 1 mps 759 mmHg 73%
    05:00 +18°C° 0 mm 1 mps 760 mmHg 70%
    06:00 +19°C° 0 mm 1 mps 760 mmHg 66%
    07:00 +21°C° 0 mm 1 mps 760 mmHg 60%
    08:00 +21°C° 0 mm 2 mps 760 mmHg 54%
    09:00 +24°C° 0 mm 2 mps 760 mmHg 48%
    10:00 +25°C° 0 mm 2 mps 760 mmHg 46%
    11:00 +26°C° 0 mm 2 mps 760 mmHg 44%
    12:00 +26°C° 0 mm 2 mps 760 mmHg 42%
    13:00 +27°C° 0 mm 2 mps 760 mmHg 42%
    14:00 +27°C° 0 mm 2 mps 760 mmHg 41%
    15:00 +27°C° 0 mm 2 mps 760 mmHg 41%
    16:00 +26°C° 0 mm 3 mps 760 mmHg 48%
    17:00 +25°C° 0 mm 3 mps 760 mmHg 54%
    18:00 +24°C° 0 mm 3 mps 760 mmHg 60%
    19:00 +22°C° 0 mm 3 mps 760 mmHg 66%
    20:00 +21°C° 0 mm 3 mps 761 mmHg 72%
    21:00 +19°C° 0 mm 3 mps 761 mmHg 78%
    22:00 +19°C° 0 mm 3 mps 761 mmHg 80%
    23:00 +18°C° 0 mm 2 mps 761 mmHg 82%
    Show more